Location: Unspecified
(43.3830°N, 0.0000°E)
Time: 08:52:27
(UTC+00:00)

Vanguard 2 - Pass Details

Date: 24 June 2019
Orbit: 553 x 2938 km, 32.9° (Epoch: 18 July)

Event Time Altitude Azimuth Distance (km) Brightness Sun altitude
Rises 06:21:52 0° 200° (SSW) 2,798 10.1 19.2°
Reaches altitude 10° 06:25:52 10° 160° (SSE) 2,133 10.0 20.0°
Maximum altitude 06:27:01 11° 146° (SE) 2,170 10.2 20.2°
Drops below altitude 10° 06:28:15 10° 132° (SE) 2,324 10.6 20.4°
Sets 06:33:36 0° 97° (E) 3,792 12.3 21.3°
